Location: Arthez
(43.0833°N, 0.2500°W)
Time: 13:17:27
(UTC+00:00)

SL-16 R/B - Pass Details

Date: 23 October 2021
Orbit: 842 x 846 km, 71.0° (Epoch: 08 December)

Event Time Altitude Azimuth Distance (km) Brightness Sun altitude
Rises 18:03:59 0° 196° (SSW) 3,385 5.6 -11.3°
Reaches altitude 10° 18:06:25 10° 194° (SSW) 2,454 4.9 -11.8°
Maximum altitude 18:12:01 70° 111° (ESE) 896 2.1 -12.8°
Drops below altitude 10° 18:17:39 10° 29° (NNE) 2,473 4.3 -13.8°
Sets 18:20:07 0° 27° (NNE) 3,413 5.1 -14.3°
